SES-22

Last updated on Thu Nov 21 2024 00:02:44 GMT+0000 (Coordinated Universal Time)

1 52933U 22071A 24325.38304310 .00000106 00000+0 00000+0 0 9997 2 52933 0.0417 87.1031 0003310 166.6286 165.0533 1.00271604 1766
UTC large
Height (km)
Speed (km/s)
/
Latitude / Longitude
Inclination (degrees)
Orbital Period (minutes)
Azimuth
Elevation
Range (km)
Doppler Factor

Next 0 passes for location: London (51.5072 / 0.1276)

Sorry there are no passes over London.